Kars, Turkey

9:24 AM +03 on February 24, 2017 (GMT +0300)
Kars

Weather History for LTCF - February, 2014

Change the Weather History Date:

Thursday, February 27, 2014

  Actual Average Record
Temperature  
Mean Temperature 30 °F -  
Max Temperature 39 °F 35 °F - ()
Min Temperature 19 °F 17 °F - ()
Degree Days  
Heating Degree Days 34    
Moisture  
Dew Point 25 °F    
Average Humidity 83    
Maximum Humidity 100    
Minimum Humidity 48    
Precipitation  
Precipitation 0.00 in 0.03 in - ()
Sea Level Pressure  
Sea Level Pressure 30.07 in    
Wind  
Wind Speed 3 mph ()    
Max Wind Speed 9 mph    
Max Gust Speed -    
Visibility 6.2 miles    
Events      
T = Trace of Precipitation, MM = Missing Value Source: Averaged Metar Reports

Daily Weather History Graph

Daily Weather History Graph

Search for Another Location

Airport or City:

Trip Planner

Search our weather history database for the weather conditions in past years. The results will help you decide how hot, cold, wet, or windy it might be!

Date:

Astronomy

Feb. 27, 2014 Rise Set
Actual Time 5:44 AM EET 4:56 PM EET
Civil Twilight 5:17 AM EET 5:23 PM EET
Nautical Twilight 4:45 AM EET 5:55 PM EET
Astronomical Twilight 4:14 AM EET 6:27 PM EET
Moon 4:01 AM EET (2/27) 2:55 PM EET (2/27)
Length of Visible Light 12h 06m
Length of Day
11h 11m
Waning Crescent, 5% of the Moon is Illuminated
Feb 27
Waning Crescent
Mar 1
New
Mar 8
First Quarter
Mar 16
Full
Mar 24
Last Quarter

Hourly Weather History & Observations

Time (EET) Temp. Windchill Dew Point Humidity Pressure Visibility Wind Dir Wind Speed Gust Speed Precip Events Conditions
12:50 AM 28.4 °F 21.2 °F 28.4 °F 100% 30.06 in 6.2 mi NW 6.9 mph - N/A   Mostly Cloudy
1:50 AM 28.4 °F - 28.4 °F 100% 30.06 in 6.2 mi Variable 2.3 mph - N/A   Mostly Cloudy
2:00 AM 29 °F - 29 °F 100%  in 6 mi South 2.3 mph - -   Partly Cloudy
2:50 AM 28.4 °F 23.3 °F 28.4 °F 100% 30.06 in 6.2 mi ESE 4.6 mph - N/A   Mostly Cloudy
3:50 AM 26.6 °F 18.2 °F 24.8 °F 93% 30.06 in 6.2 mi East 8.1 mph - N/A   Mostly Cloudy
4:50 AM 24.8 °F 15.3 °F 23.0 °F 93% 30.06 in 6.2 mi East 9.2 mph - N/A   Mostly Cloudy
5:00 AM 25 °F - 24 °F 95%  in 6 mi East 9.2 mph - -   Mostly Cloudy
5:50 AM 26.6 °F 19.1 °F 24.8 °F 93% 30.09 in 6.2 mi East 6.9 mph - N/A   Mostly Cloudy
6:50 AM 28.4 °F 24.6 °F 26.6 °F 93% 30.09 in 6.2 mi NE 3.5 mph - N/A   Mostly Cloudy
7:50 AM 26.6 °F - 26.6 °F 100% 30.09 in 6.2 mi Calm Calm - N/A   Scattered Clouds
8:00 AM 27 °F - 26 °F 97%  in 6 mi Calm Calm - -   Partly Cloudy
8:50 AM 32.0 °F - 26.6 °F 80% 30.09 in 6.2 mi Calm Calm - N/A   Scattered Clouds
9:50 AM 32.0 °F - 24.8 °F 75% 30.09 in 6.2 mi Calm Calm - N/A   Mostly Cloudy
10:50 AM 35.6 °F - 26.6 °F 70% 30.09 in 6.2 mi Calm Calm - N/A   Mostly Cloudy
11:00 AM 36 °F - 26 °F 55%  in 6 mi Calm Calm - -   Partly Cloudy
11:50 AM 37.4 °F - 24.8 °F 60% 30.09 in 6.2 mi Calm Calm - N/A   Mostly Cloudy
12:50 PM 33.8 °F - 24.8 °F 70% 30.06 in 6.2 mi Calm Calm - N/A   Mostly Cloudy
1:50 PM 39.2 °F - 26.6 °F 61% 30.06 in 6.2 mi Calm Calm - N/A   Mostly Cloudy
2:00 PM 39 °F - 26 °F 48%  in 6 mi Calm Calm - -   Mostly Cloudy
2:50 PM 35.6 °F - 28.4 °F 75% 30.06 in 6.2 mi Calm Calm - N/A   Mostly Cloudy
3:50 PM 33.8 °F - 26.6 °F 75% 30.06 in 6.2 mi Calm Calm - N/A   Mostly Cloudy
4:50 PM 33.8 °F 29.6 °F 26.6 °F 75% 30.04 in 6.2 mi NE 4.6 mph - N/A   Mostly Cloudy
5:00 PM 33 °F - 26 °F 68%  in 6 mi NE 4.6 mph - -   Mostly Cloudy
5:50 PM 32.0 °F - 26.6 °F 80% 30.06 in 6.2 mi Calm Calm - N/A   Mostly Cloudy
6:50 PM 32.0 °F 28.7 °F 26.6 °F 80% 30.06 in 6.2 mi NE 3.5 mph - N/A   Mostly Cloudy
7:50 PM 30.2 °F 25.4 °F 26.6 °F 86% 30.06 in 6.2 mi ENE 4.6 mph - N/A   Mostly Cloudy
8:00 PM 29 °F - 25 °F 79%  in 6 mi ENE 4.6 mph - -   Mostly Cloudy
8:50 PM 24.8 °F - 21.2 °F 86% 30.06 in 6.2 mi East 2.3 mph - N/A   Mostly Cloudy
9:50 PM 26.6 °F - 23.0 °F 86% 30.06 in 6.2 mi Calm Calm - N/A   Mostly Cloudy
10:50 PM 23.0 °F - 19.4 °F 86% 30.06 in 6.2 mi Calm Calm - N/A   Mostly Cloudy
11:00 PM 23 °F - 20 °F 82%  in 6 mi Calm Calm - -   Mostly Cloudy
11:50 PM 19.4 °F 14.3 °F 19.4 °F 100% 30.04 in 6.2 mi NW 3.5 mph - N/A   Mostly Cloudy